Weather History for Lebanon, NH

Change the Weather History Date:

Tuesday, September 3, 2013

  Actual Average Record
Temperature  
Mean Temperature 68 °F -  
Max Temperature 75 °F 73 °F 93 °F (1929)
Min Temperature 61 °F 52 °F 38 °F (1967)
Cooling Degree Days 2    
Growing Degree Days 18 (Base 50)    
Moisture  
Dew Point 64 °F    
Average Humidity 91    
Maximum Humidity 100    
Minimum Humidity 55    
Precipitation  
Precipitation 0.01 in - - ()
Sea Level Pressure  
Sea Level Pressure 29.74 in    
Wind  
Wind Speed 2 mph (South)    
Max Wind Speed 6 mph    
Max Gust Speed -    
Visibility 8 miles    
Events      
Averages and records for this station are not official NWS values.
T = Trace of Precipitation, MM = Missing Value Source: NWS Daily Summary

Daily Weather History Graph

Daily Weather History Graph

Search for Another Location

Airport:

Trip Planner

Search our weather history database for the weather conditions in past years. The results will help you decide how hot, cold, wet, or windy it might be!

Date:

Astronomy

Sep. 03, 2013 Rise Set
Actual Time 6:15 AM EDT 7:20 PM EDT
Civil Twilight 5:45 AM EDT 7:50 PM EDT
Nautical Twilight 5:10 AM EDT 8:25 PM EDT
Astronomical Twilight 4:33 AM EDT 9:01 PM EDT
Moon 4:24 AM EDT (9/3) 6:07 PM EDT (9/3)
Length of Visible Light 14h 04m
Length of Day
13h 05m
Waning Crescent, 3% of the Moon is Illuminated
Sep 3
Waning Crescent
Sep 5
New
Sep 12
First Quarter
Sep 19
Full
Sep 26
Last Quarter

Hourly Weather History & Observations

Time (EDT) Temp. Dew Point Humidity Pressure Visibility Wind Dir Wind Speed Gust Speed Precip Events Conditions
12:43 AM 66.2 °F 66.2 °F 100% 29.73 in 8.0 mi Calm Calm - 0.00 in   Partly Cloudy
12:53 AM 66.9 °F 66.9 °F 100% 29.71 in 8.0 mi Calm Calm - 0.00 in   Scattered Clouds
1:03 AM 68.0 °F 66.2 °F 94% 29.73 in 8.0 mi Calm Calm - N/A   Mostly Cloudy
1:18 AM 66.2 °F 66.2 °F 100% 29.74 in 6.0 mi Calm Calm - N/A   Mostly Cloudy
1:42 AM 66.2 °F 66.2 °F 100% 29.74 in 7.0 mi Calm Calm - N/A   Overcast
1:53 AM 66.0 °F - N/A% 29.71 in 7.0 mi Calm Calm - N/A   Overcast
2:53 AM 64.9 °F 64.9 °F 100% 29.70 in 8.0 mi South 4.6 mph - N/A   Mostly Cloudy
3:03 AM 64.4 °F 64.4 °F 100% 29.73 in 10.0 mi Calm Calm - N/A   Scattered Clouds
3:27 AM 64.4 °F 64.4 °F 100% 29.71 in 6.0 mi Calm Calm - N/A   Mostly Cloudy
3:33 AM 64.4 °F 64.4 °F 100% 29.71 in 1.8 mi Calm Calm - N/A   Mostly Cloudy
3:45 AM 62.6 °F 62.6 °F 100% 29.71 in 4.0 mi South 5.8 mph - N/A   Mostly Cloudy
3:53 AM 63.0 °F 63.0 °F 100% 29.69 in 9.0 mi South 4.6 mph - N/A   Mostly Cloudy
4:53 AM 64.0 °F 64.0 °F 100% 29.69 in 2.0 mi ESE 3.5 mph - N/A   Overcast
5:01 AM 64.4 °F - N/A% 29.72 in 1.5 mi Calm Calm - N/A   Overcast
5:20 AM 64.4 °F 64.4 °F 100% 29.73 in 3.0 mi Calm Calm - N/A   Overcast
5:48 AM 64.4 °F 64.4 °F 100% 29.74 in 10.0 mi South 3.5 mph - N/A   Overcast
5:53 AM 64.0 °F 64.0 °F 100% 29.71 in 10.0 mi South 3.5 mph - N/A   Overcast
6:23 AM 62.6 °F 62.6 °F 100% 29.75 in 10.0 mi SSE 4.6 mph - N/A   Scattered Clouds
6:40 AM 64.4 °F 64.4 °F 100% 29.76 in 10.0 mi South 4.6 mph - N/A   Mostly Cloudy
6:53 AM 64.0 °F 64.0 °F 100% 29.74 in 2.0 mi SSE 3.5 mph - N/A   Overcast
7:00 AM 64.4 °F 64.4 °F 100% 29.77 in 10.0 mi South 3.5 mph - N/A   Overcast
7:53 AM 64.9 °F 64.9 °F 100% 29.76 in 10.0 mi Calm Calm - N/A   Overcast
8:53 AM 66.9 °F 66.9 °F 100% 29.76 in 10.0 mi Calm Calm - N/A   Overcast
9:05 AM 68.0 °F 64.4 °F 88% 29.79 in 10.0 mi Calm Calm - N/A   Overcast
9:42 AM 69.8 °F 66.2 °F 88% 29.79 in 10.0 mi Calm Calm - N/A   Mostly Cloudy
9:53 AM 69.1 °F 68.0 °F 96% 29.76 in 10.0 mi Calm Calm - N/A   Mostly Cloudy
10:53 AM 70.0 °F 64.0 °F 81% 29.76 in 10.0 mi Calm Calm - N/A   Overcast
11:53 AM 72.0 °F 68.0 °F 87% 29.74 in 10.0 mi South 5.8 mph - N/A   Overcast
12:21 PM 71.6 °F 64.4 °F 78% 29.76 in 10.0 mi Calm Calm - N/A   Overcast
12:35 PM 71.6 °F 62.6 °F 73% 29.76 in 10.0 mi WSW 5.8 mph - N/A   Overcast
12:53 PM 73.0 °F 63.0 °F 71% 29.73 in 10.0 mi Variable 3.5 mph - N/A   Overcast
1:53 PM 72.0 °F 63.0 °F 73% 29.73 in 10.0 mi South 4.6 mph - N/A   Overcast
2:53 PM 72.0 °F 64.0 °F 76% 29.72 in 10.0 mi South 5.8 mph - N/A   Overcast
3:53 PM 72.0 °F 64.9 °F 78% 29.71 in 10.0 mi South 5.8 mph - N/A   Overcast
4:53 PM 73.9 °F 59.0 °F 59% 29.71 in 10.0 mi SW 5.8 mph - N/A   Mostly Cloudy
5:53 PM 73.9 °F 57.0 °F 55% 29.72 in 10.0 mi SW 5.8 mph - N/A   Clear
6:53 PM 66.9 °F 66.0 °F 97% 29.72 in 10.0 mi SE 3.5 mph - N/A   Clear
7:53 PM 66.0 °F 64.0 °F 93% 29.74 in 10.0 mi SSE 3.5 mph - N/A   Overcast
8:53 PM 66.0 °F 66.0 °F 100% 29.77 in 10.0 mi Calm Calm - 0.01 in   Overcast
9:53 PM 64.0 °F 61.0 °F 90% 29.78 in 10.0 mi East 3.5 mph - N/A   Partly Cloudy
10:53 PM 66.0 °F 57.0 °F 73% 29.79 in 10.0 mi NNW 3.5 mph - N/A   Scattered Clouds
11:53 PM 61.0 °F 61.0 °F 100% 29.80 in 10.0 mi South 3.5 mph - N/A   Mostly Cloudy